KD8ZVC Weather Reports


time (UTC)temp
C
wind
direction
speed
KPH
gust
KPH
rain 1hr
cm
rain 24hr
cm
rain mn
cm
humidity
%
barometer
mb
20220627201006 34 117 1.6 3.2 0.00 0.00 0.00 19 1012.8
20220627200505 33 157 1.6 4.8 0.00 0.00 0.00 22 1012.9
20220627200012 33 251 1.6 4.8 0.00 0.00 0.00 23 1012.9
20220627195524 34 282 1.6 4.8 0.00 0.00 0.00 23 1012.8
20220627195009 35 283 0.0 3.2 0.00 0.00 0.00 21 1012.9
20220627194506 35 254 0.0 3.2 0.00 0.00 0.00 22 1012.8
20220627194006 35 105 0.0 3.2 0.00 0.00 0.00 23 1012.8
20220627193506 35 116 0.0 3.2 0.00 0.00 0.00 22 1012.8
20220627193007 34 272 0.0 3.2 0.00 0.00 0.00 23 1012.9
20220627192510 34 129 0.0 6.4 0.00 0.00 0.00 22 1012.9
20220627192007 34 121 1.6 6.4 0.00 0.00 0.00 22 1012.8
20220627191506 35 266 0.0 3.2 0.00 0.00 0.00 22 1012.8
20220627191007 34 260 1.6 4.8 0.00 0.00 0.00 20 1012.7
20220627190506 34 264 1.6 3.2 0.00 0.00 0.00 21 1012.7
20220627190009 34 280 0.0 3.2 0.00 0.00 0.00 18 1012.7
20220627185507 34 86 0.0 3.2 0.00 0.00 0.00 17 1012.8
20220627185009 34 136 0.0 3.2 0.00 0.00 0.00 19 1012.8
20220627184508 33 162 0.0 3.2 0.00 0.00 0.00 19 1012.8
20220627184007 33 251 1.6 3.2 0.00 0.00 0.00 18 1012.7
20220627183506 33 92 0.0 4.8 0.00 0.00 0.00 16 1012.8
20220627183007 33 251 0.0 4.8 0.00 0.00 0.00 19 1012.7
20220627182509 33 270 0.0 1.6 0.00 0.00 0.00 19 1012.7
20220627182006 33 128 0.0 3.2 0.00 0.00 0.00 18 1012.7
20220627181507 33 212 0.0 3.2 0.00 0.00 0.00 17 1012.7
20220627181006 33 122 0.0 1.6 0.00 0.00 0.00 20 1012.6
20220627180507 33 122 0.0 1.6 0.00 0.00 0.00 20 1012.6
20220627180009 32 125 0.0 1.6 0.00 0.00 0.00 20 1012.6
20220627175507 32 76 0.0 1.6 0.00 0.00 0.00 20 1012.6
20220627175007 31 311 0.0 3.2 0.00 0.00 0.00 22 1012.5
20220627174505 31 130 0.0 3.2 0.00 0.00 0.00 23 1012.6
20220627174006 31 274 0.0 1.6 0.00 0.00 0.00 26 1012.6
20220627173507 31 165 0.0 1.6 0.00 0.00 0.00 25 1012.4
20220627173007 30 237 0.0 0.0 0.00 0.00 0.00 25 1012.6
20220627172506 29 240 0.0 1.6 0.00 0.00 0.00 24 1012.5
20220627172006 28 240 0.0 1.6 0.00 0.00 0.00 25 1012.6
20220627171506 28 245 0.0 0.0 0.00 0.00 0.00 31 1012.6
20220627171011 27 245 0.0 0.0 0.00 0.00 0.00 28 1012.6
20220627170506 27 245 0.0 0.0 0.00 0.00 0.00 24 1012.5
20220627170009 27 245 0.0 0.0 0.00 0.00 0.00 29 1012.6
20220627165506 26 245 0.0 0.0 0.00 0.00 0.00 31 1012.6
20220627165006 26 245 0.0 0.0 0.00 0.00 0.00 30 1012.5
20220627164507 26 245 0.0 0.0 0.00 0.00 0.00 32 1012.6
20220627164006 26 245 0.0 0.0 0.00 0.00 0.00 34 1012.5
20220627163507 25 245 0.0 0.0 0.00 0.00 0.00 37 1012.5
20220627163008 25 245 0.0 0.0 0.00 0.00 0.00 35 1012.5
20220627162506 25 245 0.0 0.0 0.00 0.00 0.00 35 1012.6
20220627162009 25 245 0.0 0.0 0.00 0.00 0.00 34 1012.6
20220627161506 25 245 0.0 0.0 0.00 0.00 0.00 37 1012.6
20220627161007 24 245 0.0 0.0 0.00 0.00 0.00 36 1012.6
20220627160507 24 245 0.0 0.0 0.00 0.00 0.00 37 1012.5
20220627160009 24 245 0.0 0.0 0.00 0.00 0.00 38 1012.5
20220627155505 23 245 0.0 0.0 0.00 0.00 0.00 36 1012.4
20220627155007 23 245 0.0 0.0 0.00 0.00 0.00 39 1012.4
20220627154506 23 245 0.0 0.0 0.00 0.00 0.00 39 1012.3
20220627154006 23 245 0.0 0.0 0.00 0.00 0.00 39 1012.4
20220627153507 23 245 0.0 0.0 0.00 0.00 0.00 40 1012.4
20220627153006 22 245 0.0 0.0 0.00 0.00 0.00 39 1012.3
20220627152507 22 245 0.0 0.0 0.00 0.00 0.00 43 1012.4
20220627152006 22 245 0.0 0.0 0.00 0.00 0.00 44 1012.3
20220627151506 22 245 0.0 0.0 0.00 0.00 0.00 43 1012.3
20220627151007 22 245 0.0 0.0 0.00 0.00 0.00 43 1012.3
20220627150506 22 245 0.0 0.0 0.00 0.00 0.00 45 1012.3
20220627150009 22 245 0.0 0.0 0.00 0.00 0.00 45 1012.2
20220627145506 22 245 0.0 0.0 0.00 0.00 0.00 43 1012.2
20220627145006 22 245 0.0 0.0 0.00 0.00 0.00 41 1012.1
20220627144507 22 245 0.0 0.0 0.00 0.00 0.00 40 1012.1
20220627144007 21 245 0.0 0.0 0.00 0.00 0.00 41 1012.0
20220627143506 21 245 0.0 0.0 0.00 0.00 0.00 40 1011.9
20220627143011 21 245 0.0 0.0 0.00 0.00 0.00 39 1012.0
20220627142507 22 245 0.0 0.0 0.00 0.00 0.00 37 1011.9
20220627142006 22 245 0.0 0.0 0.00 0.00 0.00 36 1011.9
20220627141507 22 245 0.0 0.0 0.00 0.00 0.00 36 1011.8
20220627141007 22 245 0.0 0.0 0.00 0.00 0.00 33 1011.7
20220627140508 21 245 0.0 0.0 0.00 0.00 0.00 32 1011.7
20220627140009 21 245 0.0 0.0 0.00 0.00 0.00 33 1011.8
20220627135507 21 245 0.0 0.0 0.00 0.00 0.00 32 1011.7
20220627135008 21 245 0.0 0.0 0.00 0.00 0.00 32 1011.7
20220627134506 21 245 0.0 0.0 0.00 0.00 0.00 32 1011.6
20220627134006 21 245 0.0 0.0 0.00 0.00 0.00 31 1011.6
20220627133506 21 245 0.0 0.0 0.00 0.00 0.00 31 1011.6
20220627133006 21 245 0.0 0.0 0.00 0.00 0.00 30 1011.5
20220627132508 22 245 0.0 0.0 0.00 0.00 0.00 29 1011.5
20220627132007 22 245 0.0 0.0 0.00 0.00 0.00 28 1011.5
20220627131506 22 245 0.0 0.0 0.00 0.00 0.00 28 1011.4
20220627131007 22 245 0.0 0.0 0.00 0.00 0.00 27 1011.3
20220627130507 22 245 0.0 0.0 0.00 0.00 0.00 27 1011.3
20220627130010 22 245 0.0 0.0 0.00 0.00 0.00 26 1011.2
20220627125506 22 245 0.0 0.0 0.00 0.00 0.00 26 1011.2
20220627125005 22 245 0.0 0.0 0.00 0.00 0.00 26 1011.1
20220627124506 22 245 0.0 0.0 0.00 0.00 0.00 26 1011.1
20220627124008 22 245 0.0 0.0 0.00 0.00 0.00 26 1011.0
20220627123506 22 245 0.0 0.0 0.00 0.00 0.00 26 1011.0
20220627123008 22 245 0.0 0.0 0.00 0.00 0.00 26 1011.0
20220627122505 22 245 0.0 0.0 0.00 0.00 0.00 25 1010.9
20220627122006 22 245 0.0 0.0 0.00 0.00 0.00 26 1011.0
20220627121507 22 245 0.0 0.0 0.00 0.00 0.00 26 1010.9
20220627121007 22 245 0.0 0.0 0.00 0.00 0.00 26 1011.0
20220627120506 22 245 0.0 0.0 0.00 0.00 0.00 26 1011.0
20220627120009 22 245 0.0 0.0 0.00 0.00 0.00 26 1011.0
20220627115507 22 245 0.0 0.0 0.00 0.00 0.00 26 1011.0
20220627115008 22 245 0.0 0.0 0.00 0.00 0.00 26 1011.0
20220627114506 22 245 0.0 0.0 0.00 0.00 0.00 26 1010.9
20220627114006 22 245 0.0 0.0 0.00 0.00 0.00 26 1011.0
20220627113506 22 245 0.0 0.0 0.00 0.00 0.00 26 1011.1
20220627113008 22 245 0.0 0.0 0.00 0.00 0.00 26 1011.0
20220627112506 22 245 0.0 0.0 0.00 0.00 0.00 27 1010.9
20220627112007 22 245 0.0 0.0 0.00 0.00 0.00 27 1010.9
20220627111506 22 245 0.0 0.0 0.00 0.00 0.00 27 1010.9
20220627111007 22 245 0.0 0.0 0.00 0.00 0.00 27 1010.9
20220627110507 22 245 0.0 0.0 0.00 0.00 0.00 27 1010.9
20220627110013 22 245 0.0 0.0 0.00 0.00 0.00 27 1010.8
20220627105507 22 245 0.0 0.0 0.00 0.00 0.00 27 1010.8
20220627105007 22 245 0.0 0.0 0.00 0.00 0.00 28 1010.8
20220627104507 22 245 0.0 0.0 0.00 0.00 0.00 28 1010.7
20220627104010 22 245 0.0 0.0 0.00 0.00 0.00 28 1010.7
20220627103506 22 245 0.0 0.0 0.00 0.00 0.00 28 1010.8
20220627103007 22 245 0.0 0.0 0.00 0.00 0.00 28 1010.7
20220627102506 23 245 0.0 0.0 0.00 0.00 0.00 28 1010.7
20220627102005 23 245 0.0 0.0 0.00 0.00 0.00 27 1010.6
20220627101507 23 245 0.0 0.0 0.00 0.00 0.00 27 1010.6
20220627101007 23 245 0.0 0.0 0.00 0.00 0.00 27 1010.7
20220627100508 23 246 0.0 0.0 0.00 0.00 0.00 27 1010.7
20220627100009 23 245 0.0 0.0 0.00 0.00 0.00 27 1010.6
20220627095506 23 245 0.0 0.0 0.00 0.00 0.00 27 1010.6
20220627095007 23 245 0.0 0.0 0.00 0.00 0.00 27 1010.6
20220627094507 23 245 0.0 0.0 0.00 0.00 0.00 27 1010.6
20220627094006 23 245 0.0 0.0 0.00 0.00 0.00 28 1010.7
20220627093510 23 245 0.0 0.0 0.00 0.00 0.00 28 1010.7
20220627093006 23 245 0.0 0.0 0.00 0.00 0.00 29 1010.6
20220627092510 23 245 0.0 0.0 0.00 0.00 0.00 29 1010.5
20220627092006 22 245 0.0 0.0 0.00 0.00 0.00 29 1010.7
20220627091506 23 245 0.0 0.0 0.00 0.00 0.00 29 1010.6
20220627091008 23 245 0.0 0.0 0.00 0.00 0.00 29 1010.5
20220627090506 23 245 0.0 0.0 0.00 0.00 0.00 29 1010.5
20220627090008 23 245 0.0 0.0 0.00 0.00 0.00 29 1010.6
20220627085505 23 245 0.0 0.0 0.00 0.00 0.00 29 1010.6
20220627085006 23 245 0.0 0.0 0.00 0.00 0.00 29 1010.5
20220627084507 23 245 0.0 0.0 0.00 0.00 0.00 29 1010.6
20220627084005 23 245 0.0 0.0 0.00 0.00 0.00 29 1010.5
20220627083505 23 245 0.0 0.0 0.00 0.00 0.00 29 1010.5
20220627083007 23 245 0.0 0.0 0.00 0.00 0.00 29 1010.5
20220627082505 23 245 0.0 0.0 0.00 0.00 0.00 29 1010.6
20220627082006 23 245 0.0 0.0 0.00 0.00 0.00 29 1010.6
20220627081506 23 245 0.0 0.0 0.00 0.00 0.00 29 1010.6
20220627081005 23 245 0.0 0.0 0.00 0.00 0.00 29 1010.6
20220627080506 23 245 0.0 0.0 0.00 0.00 0.00 29 1010.7
20220627080010 23 245 0.0 0.0 0.00 0.00 0.00 29 1010.6
20220627075507 23 245 0.0 0.0 0.00 0.00 0.00 29 1010.6
20220627075008 23 245 0.0 0.0 0.00 0.00 0.00 29 1010.6
20220627074507 23 245 0.0 0.0 0.00 0.00 0.00 30 1010.7
20220627074007 23 245 0.0 0.0 0.00 0.00 0.00 30 1010.7
20220627073507 23 245 0.0 0.0 0.00 0.00 0.00 30 1010.8
20220627073007 23 245 0.0 0.0 0.00 0.00 0.00 29 1010.7
20220627072507 23 245 0.0 0.0 0.00 0.00 0.00 29 1010.8
20220627072007 23 245 0.0 0.0 0.00 0.00 0.00 29 1010.8
20220627071507 24 245 0.0 0.0 0.00 0.00 0.00 29 1010.8
20220627071009 24 245 0.0 0.0 0.00 0.00 0.00 29 1010.9
20220627070509 24 245 0.0 0.0 0.00 0.00 0.00 29 1010.8
20220627070015 24 245 0.0 0.0 0.00 0.00 0.00 29 1010.9
20220627065507 24 245 0.0 0.0 0.00 0.00 0.00 29 1010.9
20220627065007 24 245 0.0 0.0 0.00 0.00 0.00 29 1010.9
20220627064507 24 245 0.0 0.0 0.00 0.00 0.00 29 1010.9
20220627064007 24 245 0.0 0.0 0.00 0.00 0.00 29 1011.1
20220627063508 25 245 0.0 0.0 0.00 0.00 0.00 30 1011.1
20220627063010 25 245 0.0 0.0 0.00 0.00 0.00 30 1010.9
20220627062508 25 245 0.0 0.0 0.00 0.00 0.00 30 1011.1
20220627062008 24 245 0.0 0.0 0.00 0.00 0.00 30 1011.2
20220627061509 25 245 0.0 0.0 0.00 0.00 0.00 30 1011.1
20220627061012 25 245 0.0 0.0 0.00 0.00 0.00 30 1011.3
20220627060507 25 245 0.0 0.0 0.00 0.00 0.00 30 1011.3
20220627060010 25 245 0.0 0.0 0.00 0.00 0.00 30 1011.4
20220627055508 25 245 0.0 0.0 0.00 0.00 0.00 30 1011.3
20220627055008 25 245 0.0 0.0 0.00 0.00 0.00 30 1011.4
20220627054507 25 245 0.0 0.0 0.00 0.00 0.00 30 1011.4
20220627054007 25 245 0.0 0.0 0.00 0.00 0.00 30 1011.4
20220627053507 25 245 0.0 0.0 0.00 0.00 0.00 29 1011.5
20220627053008 25 245 0.0 0.0 0.00 0.00 0.00 29 1011.4
20220627052510 25 245 0.0 0.0 0.00 0.00 0.00 29 1011.4
20220627052009 25 245 0.0 0.0 0.00 0.00 0.00 29 1011.4
20220627051508 25 245 0.0 0.0 0.00 0.00 0.00 29 1011.3
20220627051008 25 245 0.0 0.0 0.00 0.00 0.00 29 1011.3
20220627050508 25 245 0.0 0.0 0.00 0.00 0.00 29 1011.2
20220627050009 25 245 0.0 0.0 0.00 0.00 0.00 29 1011.2
20220627045508 25 245 0.0 0.0 0.00 0.00 0.00 28 1011.1
20220627045007 25 245 0.0 0.0 0.00 0.00 0.00 28 1011.1
20220627044507 25 245 0.0 0.0 0.00 0.00 0.00 28 1011.1
20220627044007 26 245 0.0 0.0 0.00 0.00 0.00 27 1011.1
20220627043507 26 245 0.0 0.0 0.00 0.00 0.00 28 1011.1
20220627043009 26 245 0.0 0.0 0.00 0.00 0.00 28 1011.0
20220627042508 26 245 0.0 0.0 0.00 0.00 0.00 28 1011.0
20220627042009 26 246 0.0 0.0 0.00 0.00 0.00 28 1010.9
20220627041508 26 245 0.0 0.0 0.00 0.00 0.00 28 1011.0
20220627041009 26 245 0.0 0.0 0.00 0.00 0.00 28 1010.9
20220627040508 26 245 0.0 0.0 0.00 0.00 0.00 28 1010.7
20220627040011 26 245 0.0 0.0 0.00 0.00 0.00 28 1010.7
20220627035511 26 246 0.0 0.0 0.00 0.00 0.00 28 1010.7
20220627035013 26 245 0.0 0.0 0.00 0.00 0.00 28 1010.7
20220627034507 26 245 0.0 0.0 0.00 0.00 0.00 28 1010.7
20220627034008 26 245 0.0 0.0 0.00 0.00 0.00 28 1010.6
20220627033507 27 246 0.0 0.0 0.00 0.00 0.00 28 1010.7
20220627033008 27 246 0.0 0.0 0.00 0.00 0.00 28 1010.7
20220627032507 27 245 0.0 0.0 0.00 0.00 0.00 29 1010.7
20220627032010 27 246 0.0 0.0 0.00 0.00 0.00 29 1010.7
20220627031508 27 246 0.0 0.0 0.00 0.00 0.00 28 1010.7
20220627031009 27 246 0.0 0.0 0.00 0.00 0.00 29 1010.7
20220627030512 27 245 0.0 0.0 0.00 0.00 0.00 30 1010.6
20220627030010 27 245 0.0 0.0 0.00 0.00 0.00 30 1010.7
20220627025508 28 245 0.0 0.0 0.00 0.00 0.00 29 1010.6
20220627025009 28 245 0.0 0.0 0.00 0.00 0.00 29 1010.6
20220627024509 28 245 0.0 0.0 0.00 0.00 0.00 28 1010.7
20220627024008 29 245 0.0 0.0 0.00 0.00 0.00 27 1010.7
20220627023508 30 246 0.0 0.0 0.00 0.00 0.00 26 1010.7
20220627023011 30 245 0.0 0.0 0.00 0.00 0.00 26 1010.7
20220627022509 31 245 0.0 0.0 0.00 0.00 0.00 26 1010.7
20220627022010 31 245 0.0 0.0 0.00 0.00 0.00 26 1010.7
20220627021508 32 245 0.0 0.0 0.00 0.00 0.00 25 1010.7
20220627021008 32 245 0.0 0.0 0.00 0.00 0.00 24 1010.7
20220627020508 32 245 0.0 0.0 0.00 0.00 0.00 23 1010.8
20220627020010 32 245 0.0 0.0 0.00 0.00 0.00 23 1010.9
20220627015508 32 245 0.0 1.6 0.00 0.00 0.00 22 1010.9
20220627015011 33 245 0.0 1.6 0.00 0.00 0.00 24 1010.7
20220627014509 32 245 0.0 0.0 0.00 0.00 0.00 24 1010.6
20220627014008 32 245 0.0 0.0 0.00 0.00 0.00 25 1010.6
20220627013511 32 246 0.0 0.0 0.00 0.00 0.00 24 1010.6
20220627013009 33 246 0.0 0.0 0.00 0.00 0.00 24 1010.6
20220627012509 33 245 0.0 1.6 0.00 0.00 0.00 23 1010.6
20220627012008 33 246 0.0 1.6 0.00 0.00 0.00 21 1010.6
20220627011507 33 243 0.0 1.6 0.00 0.00 0.00 22 1010.6
20220627011008 32 252 0.0 1.6 0.00 0.00 0.00 21 1010.6
20220627010507 33 257 0.0 3.2 0.00 0.00 0.00 20 1010.6
20220627010011 33 278 0.0 3.2 0.00 0.00 0.00 19 1010.5
20220627005508 33 220 0.0 1.6 0.00 0.00 0.00 19 1010.6
20220627005008 33 267 0.0 1.6 0.00 0.00 0.00 19 1010.7
20220627004508 34 262 0.0 1.6 0.00 0.00 0.00 18 1010.6
20220627004008 34 259 0.0 1.6 0.00 0.00 0.00 18 1010.6
20220627003508 33 266 0.0 1.6 0.00 0.00 0.00 19 1010.6
20220627003008 33 267 0.0 3.2 0.00 0.00 0.00 18 1010.6
20220627002508 35 253 0.0 1.6 0.00 0.00 0.00 18 1010.6
20220627002008 35 248 0.0 1.6 0.00 0.00 0.00 16 1010.6
20220627001508 35 245 0.0 1.6 0.00 0.00 0.00 18 1010.5
20220627001009 35 156 0.0 1.6 0.00 0.00 0.00 20 1010.5
20220627000508 35 212 0.0 3.2 0.00 0.00 0.00 16 1010.6
20220627000009 34 263 0.0 3.2 0.00 0.00 0.00 17 1010.7
20220626235510 35 266 0.0 4.8 0.00 0.00 0.00 18 1010.7
20220626235009 35 281 0.0 4.8 0.00 0.00 0.00 16 1010.7
20220626234508 35 115 0.0 3.2 0.00 0.00 0.00 16 1010.7
20220626234008 35 135 0.0 1.6 0.00 0.00 0.00 16 1010.8
20220626233508 35 141 0.0 3.2 0.00 0.00 0.00 16 1010.9
20220626233011 34 131 0.0 3.2 0.00 0.00 0.00 16 1010.9
20220626232510 35 280 1.6 3.2 0.00 0.00 0.00 14 1011.0
20220626232007 35 124 0.0 3.2 0.00 0.00 0.00 16 1011.1
20220626231507 35 143 0.0 1.6 0.00 0.00 0.00 15 1011.1
20220626231008 35 263 0.0 1.6 0.00 0.00 0.00 14 1011.2
20220626230508 35 132 0.0 3.2 0.00 0.00 0.00 15 1011.2
20220626230010 35 239 1.6 3.2 0.00 0.00 0.00 15 1011.2
20220626225507 35 156 1.6 3.2 0.00 0.00 0.00 16 1011.2
20220626225006 35 210 0.0 3.2 0.00 0.00 0.00 16 1011.2
20220626224506 35 124 0.0 3.2 0.00 0.00 0.00 16 1011.2
20220626224007 35 123 0.0 3.2 0.00 0.00 0.00 18 1011.1
20220626223506 34 119 0.0 3.2 0.00 0.00 0.00 15 1011.2
20220626223008 34 105 0.0 3.2 0.00 0.00 0.00 15 1011.2
20220626222506 33 345 1.6 4.8 0.00 0.00 0.00 16 1011.2
20220626222006 34 266 1.6 4.8 0.00 0.00 0.00 15 1011.2
20220626221506 34 278 0.0 6.4 0.00 0.00 0.00 15 1011.3
20220626221006 34 264 0.0 6.4 0.00 0.00 0.00 15 1011.2
20220626220506 34 205 0.0 3.2 0.00 0.00 0.00 16 1011.2
20220626220009 34 122 1.6 4.8 0.00 0.00 0.00 16 1011.3
20220626215506 34 243 1.6 4.8 0.00 0.00 0.00 17 1011.3
20220626215008 35 264 0.0 3.2 0.00 0.00 0.00 16 1011.3
20220626214507 35 252 0.0 3.2 0.00 0.00 0.00 18 1011.3
20220626214006 34 153 1.6 3.2 0.00 0.00 0.00 18 1011.2
20220626213506 34 134 1.6 4.8 0.00 0.00 0.00 17 1011.3
20220626213006 34 273 1.6 4.8 0.00 0.00 0.00 18 1011.2
20220626212506 35 198 0.0 3.2 0.00 0.00 0.00 18 1011.4
20220626212006 35 240 1.6 6.4 0.00 0.00 0.00 18 1011.4
20220626211508 35 205 1.6 6.4 0.00 0.00 0.00 18 1011.3
20220626211007 35 245 0.0 4.8 0.00 0.00 0.00 18 1011.3
20220626210506 35 133 0.0 4.8 0.00 0.00 0.00 18 1011.3
20220626210010 34 236 1.6 3.2 0.00 0.00 0.00 20 1011.3
20220626205506 33 273 1.6 4.8 0.00 0.00 0.00 20 1011.2
20220626205007 34 281 1.6 3.2 0.00 0.00 0.00 18 1011.3
20220626204510 34 278 1.6 6.4 0.00 0.00 0.00 21 1011.3
20220626204006 34 234 0.0 6.4 0.00 0.00 0.00 21 1011.4
20220626203506 35 256 1.6 1.6 0.00 0.00 0.00 20 1011.4
20220626203008 34 243 1.6 6.4 0.00 0.00 0.00 21 1011.5
20220626202507 35 279 1.6 6.4 0.00 0.00 0.00 17 1011.5
20220626202006 34 128 1.6 4.8 0.00 0.00 0.00 19 1011.4
20220626201524 34 171 0.0 6.4 0.00 0.00 0.00 20 1011.5